This is the latest recevied weather packets stored in our database for station/object W5CRT. If no packets are shown the sender has not sent any weather packets the latest 1 day(s).
| Time | Temp. | Humidity | Pressure | Rain* | Wind** | Luminosity | Snow |
|---|---|---|---|---|---|---|---|
| 1778029542 | 24.44° C | 67% | 1003.6 hPa | 0 mm | 1.34 m/s, 20° | 1 W/m² | - |
| 1778029238 | 24.44° C | 67% | 1003.8 hPa | 0 mm | 1.79 m/s, 335° | 1 W/m² | - |
| 1778028935 | 24.44° C | 67% | 1004.1 hPa | 0 mm | 2.24 m/s, 290° | 2 W/m² | - |
| 1778028631 | 25° C | 66% | 1004 hPa | 0 mm | 1.34 m/s, 340° | 2 W/m² | - |
| 1778028329 | 25° C | 64% | 1004 hPa | 0 mm | 3.58 m/s, 13° | 2 W/m² | - |
| 1778028025 | 25.56° C | 64% | 1003.5 hPa | 0 mm | 2.24 m/s, 325° | 4 W/m² | - |
| 1778027722 | 26.11° C | 63% | 1003.7 hPa | 0 mm | 1.79 m/s, 349° | 7 W/m² | - |
| 1778027418 | 26.11° C | 62% | 1003.8 hPa | 0 mm | 1.79 m/s, 323° | 7 W/m² | - |
| 1778027114 | 26.11° C | 62% | 1004.2 hPa | 0 mm | 1.34 m/s, 349° | 7 W/m² | - |
| 1778026809 | 26.67° C | 61% | 1003.9 hPa | 0 mm | 1.34 m/s, 357° | 10 W/m² | - |
| 1778026506 | 27.22° C | 60% | 1003.7 hPa | 0 mm | 1.34 m/s, 332° | 14 W/m² | - |
| 1778026204 | 27.78° C | 61% | 1003.6 hPa | 0 mm | 2.24 m/s, 314° | 31 W/m² | - |
| 1778025901 | 27.78° C | 69% | 1003 hPa | 0 mm | 0 m/s | 46 W/m² | - |
| 1778025598 | 27.78° C | 70% | 1003 hPa | 0 mm | 0.45 m/s, 271° | 7 W/m² | - |
| 1778025296 | 28.33° C | 69% | 1002.9 hPa | 0 mm | 0.89 m/s, 293° | 8 W/m² | - |
| 1778024993 | 28.89° C | 67% | 1003.1 hPa | 0 mm | 0.89 m/s, 258° | 25 W/m² | - |
| 1778024690 | 28.89° C | 67% | 1002.9 hPa | 0 mm | 0.89 m/s, 159° | 54 W/m² | - |
| 1778024387 | 28.89° C | 66% | 1002.9 hPa | 0 mm | 0.89 m/s, 153° | 73 W/m² | - |
| 1778024084 | 28.89° C | 66% | 1002.7 hPa | 0 mm | 1.79 m/s, 147° | 75 W/m² | - |
| 1778023782 | 29.44° C | 66% | 1002.6 hPa | 0 mm | 1.79 m/s, 166° | 90 W/m² | - |
| 1778023480 | 29.44° C | 65% | 1002.6 hPa | 0 mm | 0.45 m/s, 202° | 157 W/m² | - |
| 1778023176 | 29.44° C | 65% | 1002.8 hPa | 0 mm | 1.34 m/s, 158° | 126 W/m² | - |
| 1778022873 | 29.44° C | 65% | 1002.6 hPa | 0 mm | 0.45 m/s, 148° | 166 W/m² | - |
| 1778022572 | 30° C | 64% | 1002.2 hPa | 0 mm | 2.24 m/s, 212° | 168 W/m² | - |
| 1778022269 | 30.56° C | 62% | 1002.5 hPa | 0 mm | 2.68 m/s, 176° | 176 W/m² | - |
* Rain latest hour (hover to see other rain measurements)
** Current wind speed in m/s (hover to see current wind gust speed)